Weather History for KFCM - October, 2012

Change the Weather History Date:

Tuesday, October 2, 2012

  Actual Average Record
Temperature  
Mean Temperature 58 °F -  
Max Temperature 73 °F 63 °F 86 °F (2001)
Min Temperature 44 °F 42 °F 25 °F (2003)
Degree Days  
Heating Degree Days 6    
Growing Degree Days 8 (Base 50)    
Moisture  
Dew Point 38 °F    
Average Humidity 48    
Maximum Humidity 80    
Minimum Humidity 25    
Precipitation  
Precipitation 0.00 in - - ()
Sea Level Pressure  
Sea Level Pressure 29.91 in    
Wind  
Wind Speed 4 mph (SSE)    
Max Wind Speed 10 mph    
Max Gust Speed -    
Visibility 10 miles    
Events      
Averages and records for this station are not official NWS values.
T = Trace of Precipitation, MM = Missing Value Source: NWS Daily Summary

Daily Weather History Graph

Daily Weather History Graph

Search for Another Location

Airport or City:

Trip Planner

Search our weather history database for the weather conditions in past years. The results will help you decide how hot, cold, wet, or windy it might be!

Date:

Astronomy

Oct. 02, 2012 Rise Set
Actual Time 7:13 AM CDT 6:51 PM CDT
Civil Twilight 6:44 AM CDT 7:20 PM CDT
Nautical Twilight 6:10 AM CDT 7:54 PM CDT
Astronomical Twilight 5:36 AM CDT 8:28 PM CDT
Moon 7:55 PM CDT (10/2) 9:49 AM CDT (10/2)
Length of Visible Light 12h 36m
Length of Day
11h 37m
Waning Gibbous, 94% of the Moon is Illuminated
Oct 2
Waning Gibbous
Oct 8
Last Quarter
Oct 15
New
Oct 21
First Quarter
Oct 29
Full

Hourly Weather History & Observations

Time (CDT) Temp. Windchill Dew Point Humidity Pressure Visibility Wind Dir Wind Speed Gust Speed Precip Events Conditions
12:53 AM 54.0 °F - 35.1 °F 49% 29.95 in 10.0 mi North 6.9 mph - N/A   Clear
2:53 AM 52.0 °F - 34.0 °F 50% 29.95 in 10.0 mi NNE 3.5 mph - N/A   Clear
3:53 AM 50.0 °F - 35.1 °F 57% 29.94 in 10.0 mi Calm Calm - N/A   Clear
4:53 AM 46.0 °F 44.8 °F 36.0 °F 68% 29.94 in 10.0 mi NNW 3.5 mph - N/A   Clear
5:53 AM 44.1 °F - 37.0 °F 76% 29.96 in 10.0 mi Calm Calm - N/A   Clear
6:53 AM 45.0 °F - 37.9 °F 76% 29.97 in 10.0 mi Calm Calm - N/A   Clear
7:53 AM 45.0 °F - 39.0 °F 80% 29.97 in 10.0 mi Calm Calm - N/A   Clear
8:53 AM 53.1 °F - 39.9 °F 61% 29.97 in 9.0 mi Calm Calm - N/A   Clear
9:53 AM 55.9 °F - 39.9 °F 55% 29.97 in 10.0 mi Variable 3.5 mph - N/A   Clear
10:53 AM 62.1 °F - 43.0 °F 50% 29.95 in 10.0 mi South 3.5 mph - N/A   Clear
11:53 AM 66.9 °F - 43.0 °F 42% 29.93 in 10.0 mi SSE 6.9 mph - N/A   Clear
12:53 PM 69.1 °F - 41.0 °F 36% 29.92 in 10.0 mi Variable 4.6 mph - N/A   Clear
1:53 PM 71.1 °F - 37.9 °F 30% 29.88 in 10.0 mi South 6.9 mph - N/A   Clear
2:53 PM 73.0 °F - 37.0 °F 27% 29.86 in 10.0 mi South 10.4 mph - N/A   Clear
3:53 PM 73.0 °F - 35.1 °F 25% 29.85 in 10.0 mi Variable 4.6 mph - N/A   Clear
4:53 PM 73.0 °F - 36.0 °F 26% 29.84 in 10.0 mi SSW 5.8 mph - N/A   Clear
5:53 PM 71.1 °F - 35.1 °F 27% 29.85 in 10.0 mi South 9.2 mph - N/A   Clear
6:53 PM 64.9 °F - 36.0 °F 34% 29.85 in 10.0 mi South 5.8 mph - N/A   Clear
7:53 PM 60.1 °F - 37.0 °F 42% 29.85 in 10.0 mi SE 8.1 mph - N/A   Clear
8:53 PM 60.1 °F - 39.0 °F 46% 29.86 in 10.0 mi Calm Calm - N/A   Clear
9:53 PM 57.0 °F - 39.0 °F 51% 29.86 in 10.0 mi SE 9.2 mph - N/A   Clear
10:53 PM 57.0 °F - 39.0 °F 51% 29.87 in 10.0 mi SSE 4.6 mph - N/A   Clear
11:53 PM 55.0 °F - 39.0 °F 55% 29.87 in 10.0 mi SE 3.5 mph - N/A   Clear